Orlando Sanford International Airport Orlando US
ICAO: KSFB
IATA: SFB
Category: Large
Scheduled Services: Yes

Elevation: 55 ft
TransAlt. 18000 ft.

Airport Communications:
APP/DEP:119.775
ATIS:125.975
CLNC DEL:121.35
CTAF:120.3
GND:121.35
SANFORD TWR:120.3

KSFB Zoom In..

If Map Doesn't Load, Click Here

Runways:

(A) RW 09C length 3578 ft width 75 ft
---- / hdg 95

(B) RW 09L length 11000 ft width 150 ft
ILS 108.90 / hdg 95

(C) RW 09R length 6647 ft width 75 ft
ILS 111.55 / hdg 95

(D) RW 18 length 6002 ft width 150 ft
---- / hdg 185

(E) RW 27C length 3578 ft width 75 ft
---- / hdg 275

(F) RW 27L length 6647 ft width 75 ft
---- / hdg 275

(G) RW 27R length 11000 ft width 150 ft
ILS 110.15 / hdg 275

(H) RW 36 length 6002 ft width 150 ft
---- / hdg 5

Location; KSFB
Day. 23 / Time. 21.53 Zulu
* Altimeter: 29.96
* Temperature: 30° c. 86°f.
* Wind from: 080° Speed 11 kn.
Dewpoint: 21° c.
Visibility: 10 Statute Miles.
Clouds: Clear (automated report).

KSFB 232153Z 08011KT 10SM CLR 30/21 A2996 RMK AO2 SLP145 T03000211


Wind From 080°
Speed 11 kn.

 
 
jpsmedia.com for Web Design worldairports.se 2018   terms of use